Weather in Molokovo

Russia / Tver Oblast     58°09′56″N   36°45′50″E
temp.,
°C
wind,
m/s
gust,
m/s
humid.,
%
clouds,
%
prec.,
mm/h
press.,
hPa
HPBL,
m
19 september, sun
sun1900:00+2ene388799 0.0 1028174
03:00+2e31083100 0.0 1027287
06:00+1ene31085100 0.0 1027261
09:00+5e5966100 0.0 1027757
12:00+7e5855100 0.0 10271117
15:00+8ene5859100 0.0 10261115
18:00+7e5963100 0.0 1025963
21:00+6e41168100 0.0 1025726
20 september, mon
mon2000:00+5e61169100 0.0 1026822
03:00+4ene61277100 0.0 1025710
06:00+4ene61377100 0.0 1025781
09:00+4ene71370100 0.0 1025867
12:00+5ene71163100 0.0 1025957
15:00+6e61163100 0.0 10251054
18:00+5e6126586 0.0 1024913
21:00+5e5116399 0.0 1024897
21 september, tue
tue2100:00+4e51266100 0.0 1023726
03:00+4ene51168100 0.0 1022645
06:00+5ene5117096 0.0 1021751
09:00+4e51182100 0.0 1021817
12:00+5ene51188100 0.0 1020818
15:00+5e51095100 0.2 1020892
18:00+5e51097100 1.1 1019896
21:00+4ene51097100 1.8 1019769
22 september, wed
wed2200:00+5ene4997100 0.8 1019825
03:00+5ene4895100 1.3 1018893
06:00+5ne4994100 0.3 1018803
09:00+5ne4992100 0.4 1018691
12:00+6ne4987100 0.0 1018672
15:00+6ne51183100 0.1 1017686
18:00+7ne51178100 0.0 1017745
21:00+7ene41078100 0.0 1016731
23 september, thu
thu2300:00+7ene3978100 0.0 1014623
03:00+6ene3894100 0.4 1013449
06:00+7e2696100 0.3 1012480
09:00+7ese3697100 0.3 1011368
12:00+8ese3696100 0.1 1010458
15:00+8sse3894100 0.4 1009570
18:00+7sse3796100 0.3 1008490
21:00+7sse4995100 0.5 1008463